Location: Dreilärchen
(47.9312°N, 8.6113°E)
Time: 01:53:20
(UTC+00:00)

Cosmos 1455 - Pass Details

Date: 26 May 2022
Orbit: 492 x 515 km, 82.5° (Epoch: 26 June)

Event Time Altitude Azimuth Distance (km) Brightness Sun altitude
Rises 02:20:04 0° 336° (NNW) 2,585 6.1 -10.3°
Reaches altitude 10° 02:22:35 10° 320° (NW) 1,696 4.9 -10.1°
Maximum altitude 02:25:19 20° 272° (W) 1,201 3.7 -9.8°
Enters shadow 02:27:22 13° 232° (SW) 1,499 3.9 -9.5°
